Follow iAlert.com on twitter @ialertcom
Search For Active Alerts in Your Area  
  Hi Guest:  [ Sign-up / Services ] [ Login ]

Current weather by "City, St" or "zip code"  
 

Advertise Here

Current Conditions: Houghton Lake, Roscommon County Airport, MI

Fog/Mist


25.0 F

Last Updated on Jan 23 2018, 11:53 am EST
Humidity: 85%
Wind Speed: NW 12.7 G 18.4 mph
Barometer 29.56 in
Dewpoint: 21.0 F
Visibility: 4.00 mi
Precip: 00.02 in
Heat Index: NA
Wind Chill: 14 F
Current conditions at:

Houghton Lake, Roscommon County Airport, MI (KHTL)

Lat: 44.35 Lon: 84.674

Local Radar Image active severe weather and emergency alerts image image weather storm and storm spotter reports image weather observation monitoring service image
Local
Radar
Active
Alerts
Storm Reports Obs
Monitoring

iAlert Weather and Emergency Alert Notification Services:


ialert severe weather and emergency alerts by text message and email ialert daily weather forecast by email and text message service ialert real-time weather-observation monitoring and alert notification service ialert storm report monitoring alert notification

Observation History for Houghton Lake, Roscommon County Airport, MI


Time Wind
(mph)
Vis
(mi)
Weather Precip (in) Temperature (F) Relative
Humidity
Wind
Chill
(°F)
Heat
Index
(°F)
Pressure
Air Dwpt altimeter
(in)
sea level
(mb)
11:53 am EST NW 12.7 G 18.4 4.00 Fog/Mist 00.02 25.0 21.0 85% 14 NA 29.56 1002.4
9:53 am EST N 11.5 1.00 Light Snow Fog/Mist 00.04 28.0 25.0 88% 18 NA 29.50 1000.1
7:53 am EST NE 5.8 3.00 Light Snow Fog/Mist 00.05 32.0 30.9 96% 26 NA 29.43 997.9
6:53 am EST NE 5.8 8.00 Light Rain 00.03 33.0 32.0 96% 28 NA 29.41 996.9
5:53 am EST N 8.1 6.00 Rain Fog/Mist 00.10 34.0 33.1 97% 27 NA 29.40 996.5
4:53 am EST E 8.1 6.00 Rain Fog/Mist 00.07 34.0 33.1 97% 27 NA 29.40 996.8
3:53 am EST E 5.8 1.00 Light Rain Fog/Mist Trace 34.0 34.0 100% 29 NA 29.43 997.5
2:53 am EST NE 6.9 0.75 Fog/Mist -- 35.0 34.0 96% 29 NA 29.41 996.9
1:53 am EST E 6.9 0.50 Fog -- 35.0 34.0 96% 29 NA 29.44 997.8
12:53 am EST NE 4.6 0.25 Fog -- 35.0 34.0 96% 31 NA 29.43 997.5
11:53 pm EST NE 4.6 0.25 Fog -- 35.0 34.0 96% 31 NA 29.44 998.2
10:53 pm EST E 3.5 0.50 Fog -- 35.0 34.0 96% NA NA 29.49 999.7
9:53 pm EST NE 5.8 10.00 Overcast 00.01 35.0 34.0 96% 30 NA 29.50 1000.1
8:53 pm EST NE 3.5 6.00 Light Rain Fog/Mist 00.09 35.0 34.0 96% NA NA 29.53 1001.0
7:53 pm EST E 5.8 3.00 Light Rain Fog/Mist 00.01 35.0 35.1 100% 30 NA 29.54 1001.4
6:53 pm EST E 8.1 4.00 Fog/Mist -- 35.0 34.0 96% 28 NA 29.56 1002.1
5:53 pm EST E 8.1 5.00 Fog/Mist 00.01 35.0 34.0 96% 28 NA 29.58 1002.8
4:53 pm EST E 9.2 1.50 Light Rain Fog/Mist 00.01 35.0 34.0 96% 28 NA 29.58 1002.9
3:53 pm EST E 9.2 4.00 Fog/Mist 00.01 35.0 34.0 96% 28 NA 29.60 1003.3
2:53 pm EST E 9.2 3.00 Fog/Mist 00.03 35.0 34.0 96% 28 NA 29.63 1004.3
1:53 pm EST E 12.7 2.00 Light Rain Fog/Mist 00.06 35.0 34.0 96% 26 NA 29.66 1005.6
12:53 pm EST E 17.3 G 26.5 8.00 Light Rain 00.05 34.0 33.1 97% 23 NA 29.68 1006.3

Regional Weather Observation


Houghton Lake, Roscommon County Airport, MI (KHTL)

Fog/Mist
25.0 F

Bellaire, Antrim County Airport, MI (KACB)

Fog/Mist
22.0 F

Wexford County Airport, MI (KCAD)

Unknown Precip
23.0 F

Cherry Capital Airport, MI (KTVC)

Light Snow
24.0 F

Gaylord Regional Airport, MI (KGLR)

Light Snow Fog/Mist
18.0 F

Charlevoix, Charlevoix Municipal Airport, MI (KCVX)

Overcast
21.0 F

Advertise Here